YC0TBU-4 Weather Reports


time (UTC)temp
C
wind
direction
speed
KPH
gust
KPH
rain 1hr
cm
rain 24hr
cm
rain mn
cm
humidity
%
barometer
mb
20260505140355 28 0.0 0.0 0.00 0.00 0.00 45 1011.0
20260505130135 29 0.0 0.0 0.00 0.00 0.00 43 1010.2
20260505124600 29 0.0 0.0 0.00 0.00 0.00 42 1010.9
20260505123025 29 0.0 0.0 0.00 0.00 0.00 42 1010.1
20260505121450 29 0.0 0.0 0.00 0.00 0.00 43 1010.1
20260505115859 27 0.0 0.0 0.00 0.00 0.00 47 1010.3
20260505114324 28 0.0 0.0 0.00 0.00 0.00 46 1010.2
20260505112749 30 0.0 0.0 0.00 0.00 0.00 41 1009.7
20260505111214 30 0.0 0.0 0.00 0.00 0.00 41 1011.1
20260505100954 32 0.0 0.0 0.00 0.00 0.00 36 1009.6
20260505095419 32 0.0 0.0 0.00 0.00 0.00 36 1008.3
20260505093828 32 0.0 0.0 0.00 0.00 0.00 35 1008.9
20260505092253 31 0.0 0.0 0.00 0.00 0.00 36 1009.1
20260505090717 32 0.0 0.0 0.00 0.00 0.00 34 1007.8
20260505085148 33 0.0 0.0 0.00 0.00 0.00 34 1007.4
20260505083552 32 0.0 0.0 0.00 0.00 0.00 34 1007.6
20260505082016 32 0.0 0.0 0.00 0.00 0.00 35 1007.9
20260505080441 32 0.0 0.0 0.00 0.00 0.00 35 1008.0
20260505074906 32 0.0 0.0 0.00 0.00 0.00 35 1008.5
20260505073331 31 0.0 0.0 0.00 0.00 0.00 36 1009.0
20260505071756 31 0.0 0.0 0.00 0.00 0.00 36 1008.5
20260505070221 31 0.0 0.0 0.00 0.00 0.00 36 1008.6
20260505064646 32 0.0 0.0 0.00 0.00 0.00 35 1008.1
20260505063055 31 0.0 0.0 0.00 0.00 0.00 37 1009.3
20260505061520 31 0.0 0.0 0.00 0.00 0.00 37 1009.0
20260505055945 30 0.0 0.0 0.00 0.00 0.00 39 1009.2
20260505054410 30 0.0 0.0 0.00 0.00 0.00 39 1008.8
20260505052835 31 0.0 0.0 0.00 0.00 0.00 39 1009.7
20260505051300 31 0.0 0.0 0.00 0.00 0.00 38 1010.3
20260505041040 30 0.0 0.0 0.00 0.00 0.00 40 1012.9
20260505035505 30 0.0 0.0 0.00 0.00 0.00 40 1012.3
20260505033930 31 0.0 0.0 0.00 0.00 0.00 38 1012.4
20260505032355 31 0.0 0.0 0.00 0.00 0.00 37 1012.7
20260505030820 31 0.0 0.0 0.00 0.00 0.00 37 1012.5
20260505025245 31 0.0 0.0 0.00 0.00 0.00 38 1012.5
20260505023710 31 0.0 0.0 0.00 0.00 0.00 38 1012.6
20260505022135 30 0.0 0.0 0.00 0.00 0.00 39 1012.6
20260505020600 30 0.0 0.0 0.00 0.00 0.00 40 1012.5
20260505015025 30 0.0 0.0 0.00 0.00 0.00 40 1012.3
20260505013450 30 0.0 0.0 0.00 0.00 0.00 40 1012.3
20260505011915 29 0.0 0.0 0.00 0.00 0.00 40 1011.6
20260505010339 29 0.0 0.0 0.00 0.00 0.00 41 1011.5
20260505004804 29 0.0 0.0 0.00 0.00 0.00 40 1011.1
20260505003230 30 0.0 0.0 0.00 0.00 0.00 40 1010.9
20260505001638 29 0.0 0.0 0.00 0.00 0.00 40 1010.3
20260505000103 29 0.0 0.0 0.00 0.00 0.00 39 1010.2
20260504234528 29 0.0 0.0 0.00 0.00 0.00 39 1010.1
20260504232953 29 0.0 0.0 0.00 0.00 0.00 39 1010.5
20260504231418 29 0.0 0.0 0.00 0.00 0.00 39 1009.9
20260504225843 29 0.0 0.0 0.00 0.00 0.00 39 1009.4
20260504224308 29 0.0 0.0 0.00 0.00 0.00 39 1009.2
20260504222733 29 0.0 0.0 0.00 0.00 0.00 39 1009.9
20260504221158 30 0.0 0.0 0.00 0.00 0.00 39 1009.5
20260504215551 30 0.0 0.0 0.00 0.00 0.00 39 1009.8
20260504214016 30 0.0 0.0 0.00 0.00 0.00 39 1010.4
20260504212441 30 0.0 0.0 0.00 0.00 0.00 39 1010.3
20260504210906 30 0.0 0.0 0.00 0.00 0.00 39 1009.9
20260504205331 30 0.0 0.0 0.00 0.00 0.00 39 1010.3
20260504203756 30 0.0 0.0 0.00 0.00 0.00 39 1011.1
20260504202221 30 0.0 0.0 0.00 0.00 0.00 39 1010.9
20260504200646 30 0.0 0.0 0.00 0.00 0.00 40 1010.5
20260504195111 30 0.0 0.0 0.00 0.00 0.00 40 1010.5
20260504193536 30 0.0 0.0 0.00 0.00 0.00 40 1010.9
20260504192001 30 0.0 0.0 0.00 0.00 0.00 40 1011.1
20260504190426 30 0.0 0.0 0.00 0.00 0.00 40 1010.8
20260504184851 30 0.0 0.0 0.00 0.00 0.00 40 1011.3
20260504183316 30 0.0 0.0 0.00 0.00 0.00 39 1011.4
20260504181725 30 0.0 0.0 0.00 0.00 0.00 40 1011.3
20260504180150 30 0.0 0.0 0.00 0.00 0.00 39 1011.7
20260504174615 29 0.0 0.0 0.00 0.00 0.00 40 1012.0
20260504173040 29 0.0 0.0 0.00 0.00 0.00 40 1012.2
20260504171510 29 0.0 0.0 0.00 0.00 0.00 40 1012.6
20260504150952 28 0.0 0.0 0.00 0.00 0.00 43 1011.4